RH
76 73 71 71 67 67 65 64 60 57 53 52 54 57 63 65 63 64 62 65 67 69 73 82 87 93 82
76 78 75 73 73 74 58 47 57 55 56 52 53 57 59 59 60 60 62 65 71 77 77 76 80 94 82
84 81 80 75 77 73 66 73 52 56 53 54 57 58 59 58 58 59 64 66 71 78 82 82 77 90 88
84 81 80 75 78 80 77 75 75 55 56 61 62 61 61 60 60 68 69 66 75 77 81 83 81 85 96
90 91 85 85 84 82 81 83 82 76 83 74 70 69 67 64 64 67 66 62 75 77 80 83 86 86 96
94 96 92 91 89 89 82 85 84 74 73 70 74 70 67 67 59 61 62 62 73 75 77 80 83 92 95
87 86 84 80 79 81 83 86 85 77 80 78 71 76 69 54 63 59 60 67 64 68 70 74 82 88 94
67 75 79 77 77 73 80 86 84 79 79 85 74 80 73 73 62 63 63 60 63 65 65 69 80 84 92
60 60 61 60 61 74 88 92 86 81 82 85 77 81 78 71 71 62 64 61 65 63 64 69 73 83 91
72 68 62 66 58 69 88 93 93 95 82 91 94 97 95 82 69 62 78 64 65 62 64 69 72 85 90
82 84 81 81 82 78 78 90 95 95 76 88 95 94 93 85 83 78 81 80 76 69 66 66 71 75 89
96 96 92 86 83 84 84 87 84 81 77 90 96 97 99 96 88 83 73 76 81 76 73 76 69 71 71
90 88 86 84 83 86 84 85 86 86 76 87 96 95 98 94 94 90 81 81 76 84 82 81 82 80 88
94 84 84 83 79 84 90 90 97 94 89 89 90 94 89 95 95 91 92 94 83 82 81 80 83 86 87
87 87 83 87 86 89 93 91 91 93 92 96 87 80 83 90 95 88 84 83 86 88 85 86 85 85 83
89 90 84 83 82 86 90 94 92 95 93 97 95 98 99 93 84 93 90 89 82 86 87 92 83 86 87
80 82 79 79 76 83 82 86 91 90 95 94 94 95 96 93 77 75 93 88 91 96 92 83 76 78 82
Wind_Speed
1 4 6 6 6 6 7 6 6 17 17 17 17 18 20 21 21 22 22 24 25 25 24 23 22 13 14
3 1 3 6 6 6 5 8 8 14 21 19 18 16 15 19 20 20 19 23 23 24 24 22 23 26 15
5 1 2 3 4 5 7 5 6 16 18 19 15 16 18 19 18 19 19 21 22 24 25 22 23 26 15
2 5 3 3 3 5 6 4 5 6 12 11 16 16 18 19 20 16 18 21 22 22 25 22 19 19 8
4 3 5 4 3 3 5 4 4 4 3 5 8 8 8 13 15 15 21 21 20 22 23 23 23 20 22
3 4 4 4 4 4 6 7 7 2 5 7 5 9 9 7 17 21 20 21 18 20 22 22 23 19 20
4 4 5 5 5 5 4 4 6 6 5 9 5 8 7 10 17 19 20 15 15 18 21 22 22 23 20
6 6 6 6 5 6 6 5 5 5 4 7 6 7 7 7 19 17 9 13 15 19 22 23 20 24 22
19 20 20 19 16 5 4 4 7 6 3 4 7 5 4 8 7 9 15 18 18 20 23 23 23 22 14
6 9 12 10 17 9 4 5 4 3 4 2 4 3 4 4 4 7 4 10 16 19 21 21 22 9 9
4 4 5 5 5 6 6 4 3 4 8 2 2 2 3 7 3 4 4 4 4 9 14 19 19 15 9
5 5 5 6 6 6 6 6 6 9 8 4 3 3 2 5 8 3 6 5 4 6 7 9 15 17 17
5 5 5 5 5 4 5 6 6 6 7 5 3 3 3 6 7 5 9 4 7 5 4 6 6 7 10
3 3 3 4 5 4 4 4 2 4 5 6 6 4 6 5 5 8 4 4 6 6 6 6 5 4 5
3 3 4 3 4 3 3 4 6 4 4 3 6 7 6 8 7 6 7 8 5 6 5 7 5 4 5
2 3 5 5 5 4 3 4 5 4 5 3 3 1 1 5 13 8 6 7 6 6 6 6 8 3 4
5 5 5 5 9 6 6 5 5 5 4 4 4 5 8 9 6 17 8 7 4 3 4 6 9 7 6
Wind_Direction
282 326 330 330 323 320 321 322 323 328 332 344 347 346 341 343 347 351 355 354 352 347 344 343 339 299 185
296 307 307 311 302 316 328 320 318 321 341 338 343 345 340 340 343 348 353 351 349 343 340 338 341 337 182
292 279 268 298 323 329 314 313 336 328 332 330 339 353 348 337 342 343 350 348 345 345 345 340 341 342 184
304 309 303 292 295 310 321 322 312 319 316 345 356 349 346 345 332 330 344 344 346 344 349 347 341 333 263
294 295 305 315 304 293 303 305 306 299 358 346 338 334 333 330 319 334 339 339 342 343 347 349 345 333 337
268 285 292 316 321 312 308 315 315 280 339 316 331 317 313 310 321 326 324 335 342 345 342 348 348 337 338
245 252 270 268 275 285 276 277 283 294 306 298 301 291 295 301 308 315 317 327 343 347 345 346 347 342 330
255 248 240 249 242 258 259 274 281 284 270 284 292 280 285 287 301 314 319 356 356 352 349 344 345 339 329
284 282 281 282 284 276 278 281 296 300 255 270 279 283 283 291 295 35 19 354 356 350 345 345 346 342 330
280 283 282 278 283 274 238 245 258 300 261 331 330 341 327 279 333 341 335 340 350 343 341 342 345 343 335
271 269 278 262 249 255 241 204 212 228 265 263 260 273 247 293 288 316 318 336 334 330 331 330 340 348 338
250 257 258 260 257 250 244 234 231 236 254 202 224 201 225 290 294 300 311 300 301 310 310 317 334 337 336
262 260 253 253 262 263 259 252 245 238 246 222 200 236 199 268 280 289 303 311 293 293 315 327 323 330 331
239 250 267 275 276 262 261 256 226 268 255 234 231 209 272 255 271 287 276 278 308 294 296 301 301 295 309
260 269 276 263 268 259 255 262 255 250 264 258 237 230 237 252 271 267 273 275 276 288 289 292 289 296 304
246 251 272 272 279 270 253 252 262 250 250 242 237 268 283 256 229 258 256 265 272 272 274 284 295 296 289
270 266 269 273 289 281 275 271 263 257 233 231 220 228 254 258 259 223 239 251 257 266 251 274 289 298 292